TAM672 SBRJ-SBGR

Flight info

Callsign TAM672
Flight time 0h 47m
Altitude 36000
Route ESORU UZ10 EDMUS
Aircraft A319/M-SDE3FGHIRWY/LB1

Departure

Time 2026-05-04 18:17
Airport Santos Dumont Airport (SBRJ)

Arrival

Time 2026-05-04 19:04
Airport São Paulo/Guarulhos–Governor André Franco Montoro International Airport (SBGR)
Time Latitude Longitude Altitude Speed Heading
2026-05-04 18:09 -22.91237 -43.16511 22 ft 0 kts 356°
2026-05-04 18:11 -22.91221 -43.16513 22 ft 4 kts 354°
2026-05-04 18:12 -22.91183 -43.16516 22 ft 7 kts 356°
2026-05-04 18:12 -22.91130 -43.16519 22 ft 9 kts 356°
2026-05-04 18:12 -22.91067 -43.16534 22 ft 10 kts 353°
2026-05-04 18:12 -22.90991 -43.16540 24 ft 12 kts 356°
2026-05-04 18:13 -22.90933 -43.16544 22 ft 13 kts 356°
2026-05-04 18:13 -22.90812 -43.16544 22 ft 12 kts 13°
2026-05-04 18:13 -22.90657 -43.16548 22 ft 15 kts 356°
2026-05-04 18:14 -22.90549 -43.16555 22 ft 11 kts 356°
2026-05-04 18:14 -22.90521 -43.16555 22 ft 4 kts
2026-05-04 18:14 -22.90500 -43.16532 25 ft 5 kts 67°
2026-05-04 18:15 -22.90495 -43.16421 24 ft 9 kts 86°
2026-05-04 18:15 -22.90480 -43.16324 24 ft 5 kts 122°
2026-05-04 18:15 -22.90516 -43.16317 24 ft 0 kts 176°
2026-05-04 18:16 -22.90526 -43.16317 24 ft 14 kts 177°
2026-05-04 18:16 -22.90843 -43.16297 26 ft 78 kts 176°
2026-05-04 18:16 -22.91631 -43.16243 40 ft 148 kts 174°
2026-05-04 18:17 -22.93525 -43.15563 1364 ft 145 kts 127°
2026-05-04 18:17 -22.94017 -43.14607 1854 ft 148 kts 106°
2026-05-04 18:17 -22.95369 -43.12841 2906 ft 163 kts 137°
2026-05-04 18:18 -22.96328 -43.12022 3221 ft 185 kts 139°
2026-05-04 18:18 -22.97399 -43.11089 3497 ft 210 kts 137°
2026-05-04 18:18 -22.98609 -43.10045 3881 ft 235 kts 143°
2026-05-04 18:18 -23.00208 -43.09418 4294 ft 261 kts 180°
2026-05-04 18:19 -23.03516 -43.11235 5797 ft 276 kts 226°
2026-05-04 18:19 -23.04868 -43.12692 6904 ft 273 kts 229°
2026-05-04 18:19 -23.06203 -43.14175 7608 ft 275 kts 228°
2026-05-04 18:20 -23.07338 -43.15830 8336 ft 275 kts 250°
2026-05-04 18:20 -23.07508 -43.17875 9251 ft 277 kts 282°
2026-05-04 18:20 -23.06595 -43.19719 10090 ft 287 kts 313°
2026-05-04 18:20 -23.04829 -43.20874 10480 ft 314 kts 341°
2026-05-04 18:21 -23.02566 -43.21207 10809 ft 337 kts 353°
2026-05-04 18:21 -23.00284 -43.21878 11377 ft 340 kts 329°
2026-05-04 18:21 -22.98415 -43.23430 12093 ft 339 kts 313°
2026-05-04 18:21 -22.96871 -43.25366 12841 ft 340 kts 306°
2026-05-04 18:22 -22.95458 -43.27432 13564 ft 343 kts 304°
2026-05-04 18:22 -22.94027 -43.29527 14232 ft 347 kts 306°
2026-05-04 18:22 -22.92527 -43.31592 14862 ft 350 kts 307°
2026-05-04 18:22 -22.90950 -43.33617 15484 ft 353 kts 308°
2026-05-04 18:23 -22.89325 -43.35635 16145 ft 355 kts 309°
2026-05-04 18:23 -22.87682 -43.37648 16791 ft 358 kts 309°
2026-05-04 18:23 -22.86024 -43.39666 17433 ft 360 kts 309°
2026-05-04 18:23 -22.84354 -43.41695 18059 ft 362 kts 308°
2026-05-04 18:24 -22.82674 -43.43741 18647 ft 364 kts 308°
2026-05-04 18:24 -22.80985 -43.45805 19163 ft 367 kts 308°
2026-05-04 18:24 -22.79283 -43.47890 19663 ft 371 kts 308°
2026-05-04 18:24 -22.77569 -43.49989 20186 ft 373 kts 308°
2026-05-04 18:25 -22.75844 -43.52102 20735 ft 376 kts 308°
2026-05-04 18:25 -22.74111 -43.54243 21279 ft 379 kts 306°
2026-05-04 18:25 -22.72684 -43.56627 21795 ft 377 kts 293°
2026-05-04 18:25 -22.71797 -43.59293 22323 ft 377 kts 281°
2026-05-04 18:26 -22.71490 -43.62109 22842 ft 378 kts 269°
2026-05-04 18:26 -22.71736 -43.64947 23327 ft 380 kts 261°
2026-05-04 18:26 -22.72125 -43.67793 23801 ft 383 kts 261°
2026-05-04 18:26 -22.72520 -43.70694 24229 ft 386 kts 261°
2026-05-04 18:27 -22.72912 -43.73580 24658 ft 388 kts 261°
2026-05-04 18:27 -22.73318 -43.76477 25110 ft 390 kts 258°
2026-05-04 18:27 -22.74059 -43.79305 25532 ft 392 kts 250°
2026-05-04 18:27 -22.74989 -43.82084 25963 ft 393 kts 250°
2026-05-04 18:28 -22.75916 -43.84877 26360 ft 395 kts 250°
2026-05-04 18:28 -22.76844 -43.87688 26770 ft 397 kts 251°
2026-05-04 18:28 -22.77774 -43.90509 27175 ft 399 kts 251°
2026-05-04 18:28 -22.78711 -43.93351 27586 ft 401 kts 251°
2026-05-04 18:29 -22.79653 -43.96209 27989 ft 403 kts 251°
2026-05-04 18:29 -22.80599 -43.99075 28397 ft 405 kts 251°
2026-05-04 18:29 -22.81567 -44.01995 28797 ft 407 kts 250°
2026-05-04 18:29 -22.82526 -44.04889 29186 ft 409 kts 250°
2026-05-04 18:30 -22.84456 -44.10721 29973 ft 413 kts 250°
2026-05-04 18:30 -22.85427 -44.13659 30294 ft 415 kts 250°
2026-05-04 18:30 -22.86400 -44.16611 30614 ft 417 kts 251°
2026-05-04 18:31 -22.87378 -44.19583 30934 ft 418 kts 251°
2026-05-04 18:31 -22.88353 -44.22555 31260 ft 419 kts 251°
2026-05-04 18:31 -22.89331 -44.25541 31592 ft 420 kts 251°
2026-05-04 18:31 -22.90305 -44.28519 32021 ft 418 kts 251°
2026-05-04 18:32 -22.91273 -44.31479 32515 ft 415 kts 251°
2026-05-04 18:32 -22.92234 -44.34413 32999 ft 412 kts 251°
2026-05-04 18:32 -22.93192 -44.37330 33491 ft 408 kts 251°
2026-05-04 18:32 -22.94143 -44.40222 33971 ft 406 kts 251°
2026-05-04 18:33 -22.95087 -44.43095 34411 ft 403 kts 251°
2026-05-04 18:33 -22.96024 -44.45955 34836 ft 401 kts 251°
2026-05-04 18:33 -22.96955 -44.48807 35210 ft 400 kts 251°
2026-05-04 18:33 -22.97882 -44.51647 35566 ft 399 kts 251°
2026-05-04 18:34 -22.98806 -44.54480 35935 ft 398 kts 251°
2026-05-04 18:34 -22.99726 -44.57306 36110 ft 397 kts 251°
2026-05-04 18:34 -23.00639 -44.60116 36143 ft 394 kts 251°
2026-05-04 18:35 -23.02467 -44.65741 36143 ft 392 kts 251°
2026-05-04 18:35 -23.03944 -44.71430 36143 ft 391 kts 256°
2026-05-04 18:36 -23.05230 -44.77155 36144 ft 390 kts 256°
2026-05-04 18:36 -23.05875 -44.80027 35913 ft 392 kts 256°
2026-05-04 18:36 -23.06527 -44.82932 35129 ft 399 kts 256°
2026-05-04 18:36 -23.07196 -44.85913 34404 ft 403 kts 256°
2026-05-04 18:37 -23.07864 -44.88877 33549 ft 407 kts 256°
2026-05-04 18:37 -23.08532 -44.91844 32714 ft 410 kts 256°
2026-05-04 18:37 -23.09199 -44.94827 32320 ft 403 kts 256°
2026-05-04 18:37 -23.09855 -44.97769 31824 ft 399 kts 256°
2026-05-04 18:38 -23.10505 -45.00682 31351 ft 395 kts 256°
2026-05-04 18:38 -23.11152 -45.03569 30854 ft 391 kts 256°
2026-05-04 18:38 -23.11790 -45.06429 30373 ft 388 kts 256°
2026-05-04 18:38 -23.12430 -45.09305 29834 ft 385 kts 256°
2026-05-04 18:39 -23.13050 -45.12085 29356 ft 381 kts 256°
2026-05-04 18:39 -23.13670 -45.14866 28889 ft 376 kts 256°
2026-05-04 18:39 -23.14280 -45.17612 28417 ft 373 kts 256°
2026-05-04 18:39 -23.14884 -45.20345 27949 ft 370 kts 256°
2026-05-04 18:40 -23.15281 -45.22134 27655 ft 368 kts 256°
2026-05-04 18:40 -23.15879 -45.24828 27203 ft 365 kts 256°
2026-05-04 18:40 -23.16473 -45.27504 26763 ft 363 kts 256°
2026-05-04 18:40 -23.17061 -45.30166 26325 ft 361 kts 256°
2026-05-04 18:41 -23.17649 -45.32817 25889 ft 360 kts 256°
2026-05-04 18:41 -23.18233 -45.35450 25477 ft 358 kts 256°
2026-05-04 18:41 -23.18816 -45.38073 25065 ft 355 kts 256°
2026-05-04 18:41 -23.19393 -45.40680 24615 ft 355 kts 256°
2026-05-04 18:42 -23.19976 -45.43313 24172 ft 354 kts 256°
2026-05-04 18:42 -23.20552 -45.45917 23716 ft 353 kts 256°
2026-05-04 18:42 -23.21125 -45.48502 23238 ft 351 kts 256°
2026-05-04 18:42 -23.21694 -45.51067 22800 ft 347 kts 256°
2026-05-04 18:43 -23.22262 -45.53635 22362 ft 344 kts 256°
2026-05-04 18:43 -23.22825 -45.56151 21928 ft 340 kts 255°
2026-05-04 18:43 -23.23447 -45.58618 21476 ft 338 kts 254°
2026-05-04 18:43 -23.24121 -45.61055 21037 ft 335 kts 253°
2026-05-04 18:44 -23.24812 -45.63469 20574 ft 334 kts 253°
2026-05-04 18:44 -23.25271 -45.65063 20275 ft 333 kts 253°
2026-05-04 18:44 -23.26187 -45.68265 19658 ft 331 kts 253°
2026-05-04 18:44 -23.26858 -45.70653 19195 ft 330 kts 253°
2026-05-04 18:45 -23.27520 -45.73039 18729 ft 329 kts 253°
2026-05-04 18:45 -23.28175 -45.75417 18230 ft 328 kts 253°
2026-05-04 18:45 -23.28826 -45.77784 17743 ft 326 kts 253°
2026-05-04 18:45 -23.29472 -45.80140 17276 ft 324 kts 253°
2026-05-04 18:46 -23.30109 -45.82476 16805 ft 321 kts 253°
2026-05-04 18:46 -23.30743 -45.84804 16344 ft 319 kts 253°
2026-05-04 18:46 -23.31375 -45.87110 15883 ft 318 kts 253°
2026-05-04 18:46 -23.32007 -45.89406 15424 ft 316 kts 253°
2026-05-04 18:47 -23.32638 -45.91695 15021 ft 317 kts 253°
2026-05-04 18:47 -23.33293 -45.94026 14884 ft 326 kts 253°
2026-05-04 18:47 -23.33965 -45.96386 14731 ft 327 kts 253°
2026-05-04 18:47 -23.34642 -45.98752 14570 ft 328 kts 253°
2026-05-04 18:48 -23.35316 -46.01119 14408 ft 327 kts 253°
2026-05-04 18:48 -23.35988 -46.03487 14243 ft 327 kts 253°
2026-05-04 18:48 -23.36656 -46.05850 14084 ft 327 kts 253°
2026-05-04 18:48 -23.37324 -46.08212 13915 ft 326 kts 253°
2026-05-04 18:49 -23.37991 -46.10572 13745 ft 326 kts 253°
2026-05-04 18:49 -23.38657 -46.12927 13593 ft 326 kts 253°
2026-05-04 18:49 -23.39324 -46.15281 13439 ft 325 kts 253°
2026-05-04 18:49 -23.39989 -46.17630 13289 ft 324 kts 253°
2026-05-04 18:50 -23.40651 -46.19978 13124 ft 324 kts 253°
2026-05-04 18:50 -23.41310 -46.22321 12972 ft 323 kts 253°
2026-05-04 18:50 -23.41968 -46.24658 12817 ft 323 kts 253°
2026-05-04 18:50 -23.42606 -46.26999 12667 ft 322 kts 257°
2026-05-04 18:51 -23.42834 -46.29414 12510 ft 321 kts 272°
2026-05-04 18:51 -23.42462 -46.31801 12355 ft 321 kts 287°
2026-05-04 18:51 -23.41523 -46.34002 12203 ft 322 kts 301°
2026-05-04 18:51 -23.40276 -46.36068 12040 ft 322 kts 302°
2026-05-04 18:52 -23.39047 -46.38094 11884 ft 320 kts 302°
2026-05-04 18:52 -23.37822 -46.40118 11717 ft 319 kts 302°
2026-05-04 18:52 -23.36604 -46.42133 11566 ft 318 kts 302°
2026-05-04 18:52 -23.35391 -46.44140 11407 ft 317 kts 302°
2026-05-04 18:53 -23.34180 -46.46139 11255 ft 316 kts 302°
2026-05-04 18:53 -23.32974 -46.48133 11068 ft 315 kts 302°
2026-05-04 18:53 -23.31773 -46.50123 10871 ft 314 kts 302°
2026-05-04 18:53 -23.30576 -46.52104 10676 ft 312 kts 302°
2026-05-04 18:54 -23.29390 -46.54064 10488 ft 306 kts 303°
2026-05-04 18:54 -23.28244 -46.55955 10363 ft 293 kts 303°
2026-05-04 18:54 -23.27142 -46.57775 10176 ft 284 kts 303°
2026-05-04 18:54 -23.26223 -46.59648 10068 ft 280 kts 291°
2026-05-04 18:55 -23.25587 -46.61681 9884 ft 280 kts 289°
2026-05-04 18:55 -23.24355 -46.65689 9469 ft 278 kts 289°
2026-05-04 18:55 -23.23758 -46.67687 9260 ft 278 kts 285°
2026-05-04 18:56 -23.23529 -46.69771 9063 ft 278 kts 270°
2026-05-04 18:56 -23.23800 -46.71854 8868 ft 280 kts 259°
2026-05-04 18:56 -23.24189 -46.73918 8661 ft 278 kts 261°
2026-05-04 18:56 -23.24571 -46.75982 8444 ft 279 kts 261°
2026-05-04 18:57 -23.24954 -46.78040 8192 ft 276 kts 258°
2026-05-04 18:57 -23.25651 -46.80007 7988 ft 278 kts 243°
2026-05-04 18:57 -23.26801 -46.81707 7751 ft 280 kts 231°
2026-05-04 18:57 -23.28106 -46.83277 7520 ft 280 kts 228°
2026-05-04 18:58 -23.29713 -46.84467 7279 ft 283 kts 205°
2026-05-04 18:58 -23.31660 -46.84838 7047 ft 289 kts 180°
2026-05-04 18:58 -23.33598 -46.84278 6915 ft 293 kts 153°
2026-05-04 18:58 -23.35165 -46.82866 6814 ft 295 kts 128°
2026-05-04 18:59 -23.36321 -46.81023 6699 ft 296 kts 123°
2026-05-04 18:59 -23.37456 -46.79154 6589 ft 295 kts 123°
2026-05-04 18:59 -23.38585 -46.77286 6480 ft 295 kts 122°
2026-05-04 18:59 -23.39706 -46.75430 6345 ft 289 kts 123°
2026-05-04 19:00 -23.40803 -46.73616 6246 ft 279 kts 123°
2026-05-04 19:00 -23.41856 -46.71879 6147 ft 270 kts 123°
2026-05-04 19:00 -23.42874 -46.70200 6036 ft 262 kts 123°
2026-05-04 19:00 -23.43897 -46.68543 5633 ft 267 kts 124°
2026-05-04 19:01 -23.44962 -46.66845 5241 ft 270 kts 124°
2026-05-04 19:01 -23.46021 -46.65167 5044 ft 263 kts 124°
2026-05-04 19:01 -23.46850 -46.63446 5003 ft 248 kts 108°
2026-05-04 19:01 -23.47105 -46.62189 4858 ft 242 kts 95°
2026-05-04 19:02 -23.46881 -46.59842 4514 ft 231 kts 72°
2026-05-04 19:02 -23.46426 -46.58153 4207 ft 227 kts 72°
2026-05-04 19:02 -23.46138 -46.57083 4006 ft 217 kts 72°
2026-05-04 19:02 -23.45733 -46.55582 3762 ft 197 kts 73°
2026-05-04 19:03 -23.45367 -46.54221 3526 ft 173 kts 73°
2026-05-04 19:03 -23.45047 -46.53035 3287 ft 153 kts 73°
2026-05-04 19:03 -23.44754 -46.51952 3102 ft 143 kts 72°
2026-05-04 19:03 -23.44491 -46.50898 2898 ft 140 kts 73°
2026-05-04 19:04 -23.44211 -46.49907 2738 ft 141 kts 71°
2026-05-04 19:04 -23.43935 -46.48894 2539 ft 139 kts 70°
2026-05-04 19:04 -23.43674 -46.47933 2474 ft 120 kts 72°
2026-05-04 19:04 -23.43514 -46.47339 2472 ft 38 kts 73°
2026-05-04 19:05 -23.43443 -46.47084 2471 ft 33 kts 71°
2026-05-04 19:05 -23.43367 -46.46938 2472 ft 13 kts 53°
2026-05-04 19:05 -23.43301 -46.46859 2471 ft 15 kts 42°
2026-05-04 19:05 -23.43218 -46.46776 2472 ft 17 kts 44°
2026-05-04 19:06 -23.43171 -46.46728 2472 ft 6 kts 42°
2026-05-04 19:06 -23.43131 -46.46706 2473 ft 7 kts
2026-05-04 19:06 -23.43082 -46.46722 2473 ft 8 kts 343°
2026-05-04 19:06 -23.43024 -46.46740 2473 ft 10 kts 344°
2026-05-04 19:07 -23.42951 -46.46763 2473 ft 12 kts 344°
2026-05-04 19:07 -23.42864 -46.46798 2472 ft 14 kts 317°
2026-05-04 19:07 -23.42870 -46.46907 2472 ft 16 kts 253°
2026-05-04 19:07 -23.42905 -46.47034 2472 ft 18 kts 253°
2026-05-04 19:08 -23.42862 -46.47124 2472 ft 16 kts 310°
2026-05-04 19:08 -23.42873 -46.47237 2472 ft 15 kts 253°
2026-05-04 19:08 -23.42904 -46.47349 2472 ft 15 kts 253°
2026-05-04 19:08 -23.42917 -46.47458 2472 ft 15 kts 295°
2026-05-04 19:09 -23.42873 -46.47547 2472 ft 14 kts 260°
2026-05-04 19:09 -23.42900 -46.47650 2473 ft 14 kts 254°
2026-05-04 19:09 -23.42928 -46.47753 2473 ft 14 kts 257°
2026-05-04 19:09 -23.42887 -46.47836 2473 ft 14 kts 349°
2026-05-04 19:10 -23.42790 -46.47835 2473 ft 14 kts 349°
2026-05-04 19:10 -23.42738 -46.47844 2473 ft 4 kts
2026-05-04 19:10 -23.42723 -46.47815 2473 ft 5 kts 71°
2026-05-04 19:10 -23.42721 -46.47795 2473 ft 1 kts 84°